Regional Weather Roundup
Issued by NWS

Home | Current Version | Previous Version | Text Only | Print | Product List | Glossary Off
Versions: 1 2 3 4 5 6 7 8 9 10 11 12 13 14 15 16 17 18 19 20 21 22 23 24 25 26 27 28 29 30 31 32 33 34 35 36 37 38 39 40 41 42 43 44 45 46 47 48 49 50

000
ASUS43 KFSD 111010
RWRSD

WEATHER ROUNDUP FOR SOUTH DAKOTA
NATIONAL WEATHER SERVICE SIOUX FALLS SD
400 AM CST SUN DEC 11 2016

NOTE: "FAIR" INDICATES FEW OR NO CLOUDS BELOW 12,000 FEET WITH NO
SIGNIFICANT WEATHER AND/OR OBSTRUCTIONS TO VISIBILITY.


SDZ001>005-009-010-012>017-111100-
NORTHWEST AND NORTH CENTRAL SOUTH DAKOTA

CITY           SKY/WX    TMP DP  RH WIND       PRES   REMARKS
BUFFALO          N/A     11   7  84 NW9       29.75R WCI  -2
FAITH            N/A      3   1  91 NW5       29.88R WCI  -6
MOBRIDGE       CLOUDY     7   0  73 N6        29.92R WCI  -3
$$

SDZ012>016-024>037-041>051-057-063-072>074-111100-
SOUTHWEST AND SOUTH CENTRAL SOUTH DAKOTA

CITY           SKY/WX    TMP DP  RH WIND       PRES   REMARKS
RAPID CTY ARPT CLOUDY     1  -3  83 SW3       29.84R
PIERRE         CLOUDY     9   4  80 N10       29.91R WCI  -5
CUSTER         CLOUDY    22   6  50 CALM      29.73R
ELLSWORTH AFB  CLOUDY     1  -3  84 S6        29.83R WCI -10
PHILIP         CLOUDY     8   4  83 NW7       29.91S WCI  -3
PINE RIDGE     CLOUDY     8   6  92 CALM      29.83R
SPEARFISH      FAIR      19  10  68 W7        29.80S WCI  10
WINNER         CLOUDY    15  11  83 NW21      29.86R WCI  -2
$$

SDZ004>011-016>023-039-040-111100-
NORTHEAST SOUTH DAKOTA

CITY           SKY/WX    TMP DP  RH WIND       PRES   REMARKS
ABERDEEN       LGT SNOW  10   3  73 NE9       29.94R WCI  -3
WATERTOWN      LGT SNOW  11   7  84 E8        29.86R FOG     WCI  -1
BROOKINGS      LGT SNOW  14  11  87 E6        29.85R FOG     WCI   5
SISSETON         N/A     12   8  84 E9        29.96R WCI   0
$$

SDZ017-020-022-023-036>040-048>070-111100-
SOUTHEAST SOUTH DAKOTA

CITY           SKY/WX    TMP DP  RH WIND       PRES   REMARKS
SIOUX FALLS    CLOUDY    22  20  92 SE7       29.82R WCI  13
HURON          LGT SNOW  16  14  92 NE6       29.88R FOG     WCI   7
CHAMBERLAIN    CLOUDY    21  19  92 N10       29.86R WCI   9
MITCHELL       CLOUDY    24  21  88 NE3       29.86R
YANKTON        CLOUDY    25  19  80 E6        29.78F WCI  18
$$

ABBREVIATIONS USED IN REMARKS
   TC - TEMPERATURE IN CELSIUS
  WCI - WIND CHILL INDEX
   HX - HEAT INDEX
  VSB - VISIBILITY





USA.gov is the U.S. government's official web portal to all federal, state and local government web resources and services.